Starlink 30161

operational
NORAD ID: 57476 Int'l Des: 2023-107 Owner: SPXS Country: US Constellation: starlink
LEOCIRCULAR

Starlink 30161について

説明を読み込み中...

リアルタイム位置

3D地球を読み込み中...

次回通過

高度履歴

Altitude vs Time

uPlot chart will show altitude changes over time

軌道要素

1 57476U 23107V 25304.75463479 .00000339 00000-0 40143-4 0 9992
2 57476 43.0058 319.0974 0001171 267.9772 92.0936 15.02535383125725
Epoch: Oct 31, 2025 • Age: 45 hours

現在のステータス

高度 558.7 km
速度 7.58 km/s
衛星直下点 0.34°N, 45.42°E
打ち上げ日 Jul 28, 2023
運用期間 2.2 years
タイプ internet

技術仕様

分類 Payload
質量 730.00 kg
乾燥質量 700.00 kg
総質量 730.00 kg
長さ 0.30 m
直径 4.10 m
スパン 29.00 m
形状 Box + pan
製造者 SPXS
バスタイプ Starlink V2M
フェーズステータス In Orbit
所有者/国 SPXS/US

大規模コンステレーション

Loading constellations...